Home   Weather   Lilongwe   Past weeks

Flag for Malawi Past Weather in Lilongwe, Malawi — Yesterday and Last 2 Weeks

Now
59 °F

Fog.


Feels Like: 57 °F
Forecast: 58 / 75 °F
Wind: 10 mph from Southeast

Location: Lichinga Airport

Current Time: Apr 26, 2017 at 6:32:38 am

Latest Report: Apr 26, 2017 at 5:00 am


Visibility: 0 mi

Pressure: 30.21 "Hg (26.73 "Hg at 1031m altitude)

Humidity: 100%

Dew Point: 59 °F

Location of LilongweLocation

Past Weather in Lilongwe — Graph

°F

Lilongwe Temperature Yesterday

Maximum temperature yesterday: 72 °F (at 1:00 pm)
Minimum temperature yesterday: 59 °F (at 5:00 am)
Average temperature yesterday: 65 °F

High & Low Weather Summary for the Past Weeks

 TemperatureHumidityPressure
High79 °F (Apr 15, 1:00 pm)100% (Apr 11, 6:00 am)30.24 "Hg (Apr 11, 6:00 am)
Low59 °F (Apr 11, 6:00 am)54% (Apr 15, 1:00 pm)30.09 "Hg (Apr 11, 4:00 pm)
Average67 °F85%30.17 "Hg
* Reported Apr 11 6:00 am — Apr 26 5:00 am, Lilongwe, Weather by CustomWeather, © 2017

Note: Actual official high and low records may vary slightly from our data, if they occured in-between our weather recording intervals... More about our weather records

Advertising

Lilongwe Weather History for the Previous 24 Hours

Scroll right to see more
 ConditionsComfort  
Time TempWeatherWind HumidityBarometerVisibility
5:00 am
Wed, Apr 26
59 °FFog.10 mph100%30.21 "Hg0 mi
2:00 am59 °FLow clouds.14 mph100%30.21 "HgN/A
1:00 am59 °FPassing clouds.15 mph100%30.21 "HgN/A
12:00 am59 °FFog.16 mph100%30.21 "Hg0 mi
11:00 pm
Tue, Apr 25
61 °FFog.17 mph100%30.21 "Hg0 mi
10:00 pm63 °FFog.13 mph94%30.21 "Hg3 mi
9:00 pm63 °FPassing clouds.12 mph100%30.24 "HgN/A
7:00 pm63 °FPassing clouds.9 mph100%30.18 "HgN/A
5:00 pm68 °FPartly sunny.14 mph78%30.15 "HgN/A
4:00 pm70 °FPartly sunny.14 mph78%30.15 "HgN/A
3:00 pm70 °FBroken clouds.15 mph78%30.18 "HgN/A
2:00 pm72 °FPartly sunny.10 mph69%30.21 "HgN/A
1:00 pm72 °FPartly sunny.8 mph69%30.21 "HgN/A
12:00 pm70 °FPartly sunny.8 mph73%30.21 "HgN/A
11:00 am68 °FPartly sunny.10 mph78%30.24 "HgN/A
10:00 am64 °FBroken clouds.13 mph88%30.24 "HgN/A
9:00 am64 °FPartly sunny.12 mph83%30.24 "HgN/A
8:00 am63 °FFog.14 mph94%30.24 "Hg1 mi
7:00 am59 °FFog.10 mph100%30.24 "Hg1 mi
6:00 am59 °FFog.12 mph100%30.21 "Hg0 mi
Weather by CustomWeather, © 2017

See weather overviewHow to use our weather pages